ETHC

Details ICAO ETHC (ZCN)
Name CELLE
Region Germany - Military
Timezone Europe/Berlin (UTC+2.0)
Plans Departing 6
Arriving 1
Stats Elevation 129 ft / 39 m (AMSL)
Location 52.591198° 10.022134°
Runways 1
Magnetic Variation 2.845° E
Sunrise 2018-05-25 03:11:25 UTC / 2018-05-25 05:11:25 Local
Sunset 2018-05-25 19:25:09 UTC / 2018-05-25 21:25:09 Local
Advertisement - Login to hide

Runways

ID Width Length Bearing (true) Bearing (mag) Surface Threshold Offset Overrun Length
08 148 ft / 45 m 5,989 ft / 1,825 m 80.71° 77.87° Asphalt 0 ft / 0 m 0 ft / 0 m
26 148 ft / 45 m 5,989 ft / 1,825 m 260.73° 257.89° Asphalt 0 ft / 0 m 994 ft / 303 m

Map

Weather


0- 5 10 15 20 25 30 35+ Temperature / ° C

Clouds and Precipitation
Forecast for 2018-05-25 18:00 UTC. Updated 6 hours ago

Ground ~20,000 ft ~40,000 ft Winds

METAR

ETHC 252220Z 05007KT 9999 BKN290 18/07 Q1021 BLU+

TAF

Not found

Frequencies

Tower 122.10 MHz TWR
Approach 130.50 MHz RADAR
Warning: Do not use this data for real-world aviation or navigation. No guarantee of current accuracy is given.